Regional Weather Roundup
Issued by NWS Burlington, VT

Current Version | Previous Version | Text Only | Print | Product List | Glossary Off
Versions: 1 2 3 4 5 6 7 8 9 10 11 12 13 14 15 16 17 18 19 20 21 22 23 24 25 26 27 28 29 30 31 32 33 34 35 36 37 38 39 40 41 42 43 44 45 46 47 48 49 50

821
ASUS41 KBTV 250010
RWRBTV
VERMONT REGIONAL WEATHER ROUNDUP
NATIONAL WEATHER SERVICE BURLINGTON VT
700 PM EST FRI FEB 24 2017

NOTE: "FAIR" INDICATES FEW OR NO CLOUDS BELOW 12,000 FEET WITH NO
SIGNIFICANT WEATHER AND/OR OBSTRUCTIONS TO VISIBILITY.

* THESE REPORTS ARE NOT UNDER NWS QUALITY CONTROL AND/OR DO NOT
  REPORT WEATHER SUCH AS PRECIPITATION AND FOG.

VTZ001>019-250100-
_____VERMONT_____


CITY           SKY/WX    TMP DP  RH WIND       PRES   REMARKS
BURLINGTON     CLOUDY    40  37  89 NW3       29.80F
6HR MIN TEMP:  40; 6HR MAX TEMP:  43; 6HR PCP:  0.02;

MONTPELIER     FOG       41  41 100 CALM      29.84S VSB 1/4
6HR MIN TEMP:  41; 6HR MAX TEMP:  51; 6HR PCP:  0.10;

MORRISVILLE    CLOUDY    34  34 100 CALM      29.81S FOG
6HR MIN TEMP:  33; 6HR MAX TEMP:  44; 6HR PCP:  0.03;

ST. JOHNSBURY*   N/A     41  41 100 MISG      29.80S
6HR MIN TEMP:  40; 6HR MAX TEMP:  51; 6HR PCP:  0.14;

LYNDONVILLE*   FOG       46  45  97 CALM      29.82S VSB<1/4
6HR MIN TEMP:  44; 6HR MAX TEMP:  49;

MIDDLEBURY*    FOG       40  40 100 N3        29.81R VSB 1/4
                                      6HR PCP:  0.03;

RUTLAND*       PTCLDY    46  45  96 CALM      29.80S
6HR MIN TEMP:  46; 6HR MAX TEMP:  56;

SPRINGFIELD    PTCLDY    38  35  89 CALM      29.82R
6HR MIN TEMP:  38; 6HR MAX TEMP:  58;

HIGHGATE*      CLOUDY    35  35  99 NW3       29.81S
6HR MIN TEMP:  35; 6HR MAX TEMP:  41;

NEWPORT*       CLOUDY    37  36  97 CALM      29.82S
6HR MIN TEMP:  37; 6HR MAX TEMP:  42;

BENNINGTON     PTCLDY    64  48  56 SE5       29.79S
6HR MIN TEMP:  64; 6HR MAX TEMP:  72; 6HR PCP: TRACE;

SUTTON*          N/A     43 N/A N/A MISG        N/A

_____LAKE CHAMPLAIN_____


CITY           SKY/WX    TMP DP  RH WIND       PRES   REMARKS
BURTON ISLAND*   N/A     34  34 100 W1          N/A
COLCHESTER RF*   N/A     39  37  93 N3          N/A
DIAMOND ISL*     N/A     39  39 100 N8          N/A

$$

NYZ007-026>031-035-052-083-087-250100-
_____NORTHERN NEW YORK_____


CITY           SKY/WX    TMP DP  RH WIND       PRES   REMARKS
PLATTSBURGH    CLOUDY    39  36  89 CALM      29.80F
6HR MIN TEMP:  39; 6HR MAX TEMP:  44; 6HR PCP: TRACE;

SARANAC LAKE   FOG       37  37 100 NE5       29.73F VSB 1/2
6HR MIN TEMP:  37; 6HR MAX TEMP:  47; 6HR PCP: TRACE;

MASSENA        MIX PCPN  36  35  96 NE18G25   29.78R WCI  26
6HR MIN TEMP:  36; 6HR MAX TEMP:  38; 6HR PCP:  0.01;

OGDENSBURG*    CLOUDY    37  36  96 NE7       29.74F FOG     WCI  32
6HR MIN TEMP:  37; 6HR MAX TEMP:  39;

POTSDAM*       CLOUDY    37  37 100 E9        29.73F FOG     WCI  31
WATERTOWN      CLOUDY    39  38  96 NE9       29.69S
6HR MIN TEMP:  39; 6HR MAX TEMP:  44;

FT DRUM        CLOUDY    39  38  94 NE9       29.68F
6HR MIN TEMP:  39; 6HR MAX TEMP:  43;

ALBANY         CLOUDY    68  50  52 S12G24    29.77R
6HR MIN TEMP:  68; 6HR MAX TEMP:  74;

GLENS FALLS    CLOUDY    46  41  82 N7        29.78S
6HR MIN TEMP:  46; 6HR MAX TEMP:  59;


$$
NHZ002-005-011-250100-
_____NEW HAMPSHIRE_____


CITY           SKY/WX    TMP DP  RH WIND       PRES   REMARKS
LEBANON        FOG       39  39 100 CALM      29.81S VSB<1/4
6HR MIN TEMP:  37; 6HR MAX TEMP:  52; 6HR PCP:  0.01;

KEENE          PTCLDY    50  45  83 S6        29.84R
6HR MIN TEMP:  49; 6HR MAX TEMP:  68;

MT WASHINGTON  FOG       39  39 100 W59G67      N/A  VSB 0   WCI  24
6HR MIN TEMP:  38; 6HR MAX TEMP:  41; 6HR PCP:  0.10;

PLYMOUTH       FOG       38  37  99 CALM      29.84S VSB<1/4
6HR MIN TEMP:  37; 6HR MAX TEMP:  48;

WHITEFIELD     FOG       38  36  92 CALM      29.81F VSB 1/4
6HR MIN TEMP:  38; 6HR MAX TEMP:  58; 6HR PCP:  0.11;


$$

_____REGIONAL QUEBEC LOCATIONS_____


CITY           SKY/WX    TMP DP  RH WIND       PRES   REMARKS
MONTREAL       CLOUDY    36  32  87 NE17      29.83S WCI  25
QUEBEC CITY    FRZ RAIN  32  30  93 NE7       29.94R WCI  26
SHERBROOKE     LGT RAIN  37  37 100 NE6       29.81S

_____REGIONAL ONTARIO LOCATIONS_____


CITY           SKY/WX    TMP DP  RH WIND       PRES   REMARKS
OTTAWA         CLOUDY    34  34 100 N13       29.79R WCI  25

______KEY______
VSB  - VISIBILITY IN MILES
WCI  - WIND CHILL INDEX
HX   - HEAT INDEX
$$
NNNN




USA.gov is the U.S. government's official web portal to all federal, state and local government web resources and services.